Location: Aldea de San Andr�s
(41.7510°N, 4.5215°W)
Time: 06:48:12
(UTC+00:00)

Daily predictions for brighter satellites

Satellite Brightness Start Highest point End
(mag) Time Altitude Azimuth Time Altitude Azimuth Time Altitude Azimuth
Cosmos 1943 3.2 17:37:57 10° NNW 17:43:38 70° ENE 17:49:15 10° SSE
Cosmos 1726 Rocket 4.2 17:40:42 10° N 17:44:41 33° ENE 17:48:39 10° SE
Meteor 1-24 Rocket 3.7 17:40:41 10° S 17:45:57 60° E 17:51:10 10° NNE
ERS-2 3.9 17:44:05 10° ENE 17:46:10 15° E 17:48:14 10° SE
COSMOS 2455 3.3 17:40:52 10° S 17:46:31 44° ESE 17:52:13 10° NE
BREEZE-M DEB (TANK) 3.7 17:50:40 10° WNW 17:53:07 51° SSW 17:59:30 10° SE
CZ-4 R/B 2.8 17:53:35 10° ESE 17:56:24 18° ENE 17:59:11 10° NNE
Cosmos 1315 Rocket 2.7 17:53:16 10° N 17:57:16 76° E 18:01:16 10° SSE
COSMO-SKYMED 1 2.9 17:59:42 10° NNE 18:03:52 43° E 18:07:59 10° S
Cosmos 2279 Rocket 4.0 17:58:27 10° N 18:04:43 69° E 18:10:56 10° SSE
H-2A R/B 3.9 18:07:47 10° S 18:11:33 41° W 18:15:29 10° NNW
Okean-O 3.6 18:08:50 10° ESE 18:12:28 26° ENE 18:16:08 10° NNE
Cosmos 1844 Rocket 3.2 18:08:28 10° S 18:13:42 40° ESE 18:18:57 10° NE
CZ-2C R/B 3.4 18:08:51 10° SE 18:13:51 47° ENE 18:19:08 10° N
CZ-4B R/B 1.3 18:10:37 10° NNE 18:14:00 65° ESE 18:17:15 10° S
Okean O Rocket 2.2 18:10:49 10° S 18:15:13 62° W 18:19:38 10° NNW
OE (NEXTSAT) 4.5 18:11:50 10° W 18:15:14 64° NNW 18:17:46 17° ENE
Cosmos 1626 4.3 18:12:35 10° SW 18:15:47 28° WNW 18:19:00 10° NNW
H-2A R/B 2.8 18:12:16 10° SE 18:16:28 28° ENE 18:20:45 10° N
ATLAS 2AS CENTAUR R/B 4.4 18:09:48 10° W 18:16:39 31° NW 18:23:24 10° NNE
Aureole 2 Rocket 2.6 18:14:31 10° S 18:17:17 38° ESE 18:19:29 15° NE
CSL-04 DEB 4.5 18:13:34 10° NNE 18:17:47 87° WNW 18:21:52 10° SSW
SMAP 4.4 18:13:51 10° S 18:18:16 43° W 18:22:43 10° NNW
Cosmos 1689 Rocket 3.3 18:20:01 20° ENE 18:20:38 22° E 18:22:55 10° SSE
CZ-4B R/B 4.2 18:18:14 10° S 18:23:35 51° W 18:29:03 10° NNW
Cosmos 773 Rocket 4.1 18:18:47 10° NNW 18:23:57 80° WSW 18:29:04 10° SSE
SKYMED 3 4.5 18:23:32 10° NNE 18:27:54 82° ESE 18:32:14 10° S
CZ-2D R/B 3.1 18:26:01 10° SSE 18:29:52 71° ENE 18:33:42 10° N
Cosmos 1818 3.6 18:25:06 10° SSW 18:30:24 59° ESE 18:34:52 15° NE
TELKOM 3 3.4 18:28:57 10° WSW 18:31:15 54° NNW 18:32:11 31° NE
SAR-Lupe-4 3.9 18:31:27 15° NNE 18:34:07 42° E 18:37:31 10° S
YAOGAN 1 2.9 18:30:17 10° SE 18:34:18 40° ENE 18:38:21 10° N
Meteor 2-10 Rocket 3.5 18:29:06 10° N 18:34:38 75° E 18:39:53 10° SSE
Cosmos 1892 Rocket 3.7 18:30:56 10° SSW 18:35:16 73° W 18:39:37 10° N
H-2A R/B 4.0 18:32:18 10° N 18:36:12 30° WNW 18:40:01 10° SW
CSL-04 Rocket 4.3 18:33:36 10° SE 18:38:18 32° ENE 18:43:05 10° N
Helios 1A Rocket 3.5 18:35:30 10° SE 18:39:15 35° ENE 18:43:02 10° N
ATLAS 5 CENTAUR R/B 3.7 18:40:23 10° W 18:43:25 19° NW 18:46:43 10° N
USA 234 4.4 18:40:19 17° NE 18:43:36 26° NNE 18:48:48 10° NW
Cosmos 1092 Rocket 4.2 18:38:07 10° SSE 18:43:55 44° E 18:49:43 10° NNE
SAR-Lupe-1 4.0 18:42:35 19° NNE 18:45:01 58° ESE 18:48:32 10° S
Iridium 4 Rocket 4.1 18:42:45 10° NNE 18:47:54 35° E 18:52:40 10° SE
MOS 1 Rocket 3.1 18:43:47 10° N 18:48:06 82° WNW 18:52:22 10° SSW
Meteor 2-1 Rocket 4.1 18:43:29 10° N 18:49:01 63° ENE 18:54:28 10° SSE
SKYMED 2 4.3 18:47:39 10° N 18:51:54 54° WNW 18:56:07 10° SSW
SJ 16-02 1.2 18:48:16 10° SSW 18:52:40 82° ESE 18:55:59 17° NNE
SJ-11-01 4.3 18:48:50 10° SSE 18:53:24 55° ENE 18:57:59 10° N
Cosmos 1538 Rocket 4.2 18:52:43 10° NNW 18:57:52 70° WSW 19:02:59 10° S
Aureole 3 2.6 18:55:03 10° N 18:58:29 71° E 19:01:30 10° SSE
NOSS 2-1 (E) 4.4 18:57:40 10° S 18:59:32 23° SSE 18:59:32 23° SSE
Nadezhda 4 Rocket 4.0 18:54:56 10° S 19:01:12 83° W 19:07:27 10° N
Cosmos 2112 Rocket 4.5 18:57:21 10° N 19:02:11 36° ENE 19:02:19 36° ENE
Cosmos 1455 2.0 18:59:01 10° N 19:02:51 87° E 19:06:41 10° S
Cosmos 2263 Rocket 4.5 18:59:37 10° W 19:03:42 20° NW 19:07:48 10° N
X-37B 0.5 19:02:25 10° WSW 19:05:31 84° W 19:05:31 84° W
Cosmos 1703 3.1 19:02:45 10° S 19:06:36 65° E 19:07:02 58° ENE
Cosmos 2058 Rocket 4.1 19:02:49 10° NNW 19:07:10 49° W 19:11:30 10° SSW
Cosmos 1340 4.1 19:04:07 10° SSE 19:05:49 24° SSE 19:05:49 24° SSE
ARGOS 3.0 19:11:31 10° SSE 19:16:50 72° ENE 19:22:11 10° N
ISS -2.9 19:14:53 10° WSW 19:17:58 44° NW 19:17:58 44° NW
Cosmos 44 3.2 19:13:42 10° SSW 19:18:19 62° ESE 19:18:46 59° E
ERS-2 3.7 19:16:36 11° N 19:19:49 35° WNW 19:23:08 10° SW
Lacrosse 5 1.7 19:18:29 10° NW 19:23:34 76° NE 19:24:15 64° ESE
CSL-04 Debris 4.0 19:21:44 10° SSE 19:27:08 88° ENE 19:32:33 10° NNW
Cosmos 1626 Rocket 4.1 19:23:42 10° SSW 19:27:59 58° W 19:31:13 17° N
CZ-2C R/B 2.6 19:27:19 47° NE 19:28:49 66° ESE 19:34:22 10° S
CZ-4 R/B 2.9 19:27:18 10° SSW 19:31:08 37° W 19:34:56 10° NNW
COSMOS 2455 4.3 19:27:11 10° WSW 19:32:35 33° NW 19:37:13 13° N
NOSS 3-1 (C) 4.2 19:25:23 10° NNW 19:32:45 54° NE 19:34:39 46° E
Cosmos 990 Rocket 3.9 19:29:58 10° SSW 19:35:11 85° WNW 19:36:25 54° NNE
Cosmos 1844 4.3 19:30:05 10° SW 19:35:36 55° WNW 19:39:07 23° N
Cosmos 2026 Rocket 3.8 19:32:10 10° S 19:38:15 90° NE 19:44:28 10° N
Cosmos 1833 Rocket 4.4 19:34:27 10° N 19:36:25 19° N 19:36:25 19° N
Cosmos 2082 Rocket 4.4 19:37:18 10° N 19:37:48 12° N 19:37:48 12° N
Meteor 2-19 Rocket 4.3 19:37:07 10° S 19:43:14 74° E 19:44:21 59° NE
Hubble Space Telescope 3.4 19:42:55 10° SSW 19:44:04 12° SSW 19:44:04 12° SSW
Okean-O 4.5 19:44:57 10° SSW 19:48:49 30° W 19:52:45 10° NW
USA 229 DEB 4.1 19:42:35 10° NNW 19:49:18 49° NE 19:49:18 49° NE
USA 229 4.1 19:42:41 10° NNW 19:49:21 49° NE 19:49:21 49° NE
USA 267 3.1 19:51:34 69° E 19:52:20 78° SE 19:58:53 10° SW
Meteor 1-11 4.3 19:48:40 10° S 19:53:35 67° S 19:53:35 67° S
H-2A R/B 3.5 19:51:17 10° SSW 19:55:45 34° W 20:00:21 10° NNW
Cosmos 1844 Rocket 4.3 19:52:41 10° WSW 19:57:40 31° NW 20:01:07 17° N
Cosmos 1898 Rocket 4.0 19:58:51 10° SW 20:04:01 56° WNW 20:04:03 56° WNW
NOSS 3-1 (A) 4.3 19:57:57 10° NNW 20:04:26 52° NNE 20:04:26 52° NNE
Cosmos 2278 Rocket 4.0 20:00:45 10° S 20:02:22 20° S 20:02:22 20° S
Cosmos 1680 Rocket 4.2 20:01:49 10° NNW 20:06:54 52° WSW 20:07:03 51° WSW
USA 234 4.1 20:27:41 38° NNW 20:27:41 38° NNW 20:31:57 10° NW
SJ 16-02 4.4 20:30:44 10° WNW 20:31:51 11° NW 20:32:58 10° NW
